Regional Weather Roundup
Issued by NWS Jackson, KY

Home | Current Version | Previous Version | Graphics & Text | Print | Product List | Glossary On
Versions: 1 2 3 4 5 6 7 8 9 10 11 12 13 14 15 16 17 18 19 20 21 22 23 24 25 26 27 28 29 30 31 32 33 34 35 36 37 38 39 40 41 42 43 44 45 46 47 48 49 50
000
ASUS43 KJKL 190305
RWRJKL

EAST KENTUCKY HOURLY WEATHER ROUNDUP
NATIONAL WEATHER SERVICE JACKSON KY
1100 PM EDT THU SEP 18 2014

NOTE: "FAIR" INDICATES FEW OR NO CLOUDS BELOW 12,000 FEET WITH
NO SIGNIFICANT WEATHER AND/OR OBSTRUCTIONS TO VISIBILITY.

* THESE REPORTS ARE NOT UNDER NWS QUALITY CONTROL AND MAY NOT
  REPORT WEATHER SUCH AS PRECIPITATION AND FOG.

KYZ079-080-083-085-087-088-110-112-115-119-120-190400
...EASTERN KENTUCKY...

CITY           SKY/WX    TMP DP  RH WIND       PRES   REMARKS
JACKSON        CLEAR     61  51  70 CALM      30.11R
LONDON         CLEAR     62  53  72 NE3       30.09R
MONTICELLO*    CLEAR     57  55  93 CALM      30.09R
WILLIAMSBURG*  CLEAR     59  57  94 CALM      30.08
MIDDLESBORO*   CLEAR     58  56  92 CALM      30.09R
HARLAN APT*    CLEAR     57  57 100 MISG      30.10R
BLACK MTN*       N/A     54  50  87 E2          N/A
PIKEVILLE APT* CLEAR     59  54  82 NE5       30.11R
BIG SANDY*     CLEAR     56  55  97 CALM      30.10S
MOREHEAD APT*  PTCLDY    59  48  67 NE7       30.13S
$$

KYZ035-036-041-042-044-050-067-078-099-190400
...CENTRAL KENTUCKY...

CITY           SKY/WX    TMP DP  RH WIND       PRES   REMARKS
MT STERLING*   CLEAR     57  52  82 E5        30.12S
FLEMING/MASON* CLEAR     55  49  80 E5        30.14R
DANVILLE*      CLEAR     57  52  82 NE3       30.10S
RICHMOND*      CLEAR     59  54  82 CALM      30.09S
LEXINGTON      CLEAR     63  50  62 E8        30.10R
FRANKFORT      CLEAR     54  51  90 CALM      30.09R
$$

KYZ091>093-OHZ055-061-077-WVZ005-015-034-035-042-190400
...SOUTHERN OHIO/WEST VIRGINIA...

CITY           SKY/WX    TMP DP  RH WIND       PRES   REMARKS
COVINGTON      CLEAR     60  46  59 E7        30.13R
COLUMBUS       CLEAR     60  49  66 NE6       30.15R
DAYTON         CLEAR     58  49  72 E8        30.16R
WILMINGTON     CLEAR     54  46  74 E5        30.14R
HUNTINGTON     CLEAR     58  50  75 NE5       30.11R
CHARLESTON     CLEAR     57  57 100 CALM      30.11R
PINEVILLE*     PTCLDY    58  58 100 MISG      30.16S FOG
BECKLEY        PTCLDY    57  51  80 NE3       30.14R
BLUEFIELD      CLOUDY    61  53  75 CALM      30.15R
$$

VAZ002-007-008-TNZ017-027-036-066-071-190400
...SOUTHWEST VIRGINIA/EAST TENNESSEE...

CITY           SKY/WX    TMP DP  RH WIND       PRES   REMARKS
WISE*          CLEAR     57  52  82 NE5       30.15R
JONESVILLE*    CLEAR     55  55 100 CALM      30.11S
ABINGDON*      CLOUDY    62  56  81 CALM      30.11R
BRISTOL        PTCLDY    61  54  77 CALM      30.08R
KNOXVILLE      MOCLDY    65  58  78 N6        30.03R
OAK RIDGE      PTCLDY    63  60  90 CALM      30.06S
CROSSVILLE     PTCLDY    63  57  81 CALM      30.09R
NASHVILLE      CLEAR     66  61  84 NE5       30.03S
$$

...KEY TO REMARKS...
VSB - VISIBILITY IN MILES
WCI - WIND CHILL INDEX
HX  - HEAT INDEX

$$



USA.gov is the U.S. government's official web portal to all federal, state and local government web resources and services.